Time,TemperatureF,DewpointF,PressureIn,WindDirection,WindDirectionDegrees,WindSpeedMPH,WindSpeedGustMPH,Humidity,HourlyPrecipIn,Conditions,Clouds,dailyrainin,SoftwareType,DateUTC
2013-05-23 00:05:00,53.9,52.8,29.69,NNE,19,5.0,5.0,96,0.04,,,1.44,Wunderground v.1.13,2013-05-23 05:05:00,
2013-05-23 00:15:00,53.9,52.8,29.69,NNE,22,4.0,14.0,96,0.04,,,1.44,Wunderground v.1.13,2013-05-23 05:15:00,
2013-05-23 00:20:00,53.8,52.7,29.69,NNE,18,3.0,3.0,96,0.00,,,1.44,Wunderground v.1.13,2013-05-23 05:20:00,
2013-05-23 00:30:00,53.8,52.7,29.70,NNE,24,2.0,2.0,96,0.00,,,1.45,Wunderground v.1.13,2013-05-23 05:30:00,
2013-05-23 00:35:00,53.8,52.7,29.70,NNE,24,1.0,1.0,96,0.05,,,1.46,Wunderground v.1.13,2013-05-23 05:35:00,
2013-05-23 00:45:00,53.8,52.7,29.70,North,5,1.0,11.0,96,0.04,,,1.46,Wunderground v.1.13,2013-05-23 05:45:00,
2013-05-23 00:50:00,53.6,52.5,29.70,NNW,348,2.0,11.0,96,0.04,,,1.47,Wunderground v.1.13,2013-05-23 05:50:00,
2013-05-23 01:00:00,53.3,52.2,29.70,NW,323,3.0,3.0,96,0.07,,,1.48,Wunderground v.1.13,2013-05-23 06:00:00,
2013-05-23 01:05:00,53.3,52.2,29.70,NW,317,2.0,10.0,96,0.07,,,1.48,Wunderground v.1.13,2013-05-23 06:05:00,
2013-05-23 01:15:00,52.9,51.8,29.70,North,5,4.0,10.0,96,0.04,,,1.49,Wunderground v.1.13,2013-05-23 06:15:00,
2013-05-23 01:20:00,52.8,51.7,29.70,NNE,28,4.0,10.0,96,0.04,,,1.49,Wunderground v.1.13,2013-05-23 06:20:00,
2013-05-23 01:30:00,52.6,51.5,29.71,NE,44,3.0,10.0,96,0.04,,,1.50,Wunderground v.1.13,2013-05-23 06:30:00,
2013-05-23 01:35:00,52.6,51.5,29.71,North,360,5.0,5.0,96,0.04,,,1.50,Wunderground v.1.13,2013-05-23 06:35:00,
2013-05-23 01:40:00,52.5,51.4,29.71,North,5,5.0,5.0,96,0.07,,,1.51,Wunderground v.1.13,2013-05-23 06:40:00,
2013-05-23 01:45:00,52.3,51.2,29.71,NNE,13,6.0,12.0,96,0.12,,,1.52,Wunderground v.1.13,2013-05-23 06:45:00,
2013-05-23 01:50:00,52.3,51.2,29.71,North,355,6.0,6.0,96,0.06,,,1.52,Wunderground v.1.13,2013-05-23 06:50:00,
2013-05-23 01:55:00,52.3,51.2,29.72,North,5,5.0,5.0,96,0.05,,,1.53,Wunderground v.1.13,2013-05-23 06:55:00,
2013-05-23 02:00:00,52.2,51.1,29.72,NNW,348,5.0,10.0,96,0.05,,,1.53,Wunderground v.1.13,2013-05-23 07:00:00,
2013-05-23 02:05:00,52.2,51.1,29.72,North,360,6.0,6.0,96,0.04,,,1.53,Wunderground v.1.13,2013-05-23 07:05:00,
2013-05-23 02:15:00,52.0,50.9,29.72,NE,36,6.0,6.0,96,0.00,,,1.54,Wunderground v.1.13,2013-05-23 07:15:00,
2013-05-23 02:20:00,51.9,50.8,29.72,NNW,340,5.0,14.0,96,0.00,,,1.54,Wunderground v.1.13,2013-05-23 07:20:00,
2013-05-23 02:30:00,51.7,50.6,29.73,North,5,5.0,5.0,96,0.00,,,1.54,Wunderground v.1.13,2013-05-23 07:30:00,
2013-05-23 02:35:00,51.7,50.6,29.73,NNE,16,5.0,5.0,96,0.00,,,1.54,Wunderground v.1.13,2013-05-23 07:35:00,
2013-05-23 02:45:00,51.7,50.6,29.73,North,5,4.0,4.0,96,0.00,,,1.55,Wunderground v.1.13,2013-05-23 07:45:00,
2013-05-23 03:00:00,51.7,50.6,29.74,North,350,3.0,13.0,96,0.00,,,1.56,Wunderground v.1.13,2013-05-23 08:00:00,
2013-05-23 03:05:00,51.7,50.6,29.74,North,355,2.0,13.0,96,0.00,,,1.56,Wunderground v.1.13,2013-05-23 08:05:00,
2013-05-23 03:15:00,51.9,50.8,29.74,NNW,348,3.0,3.0,96,0.00,,,1.56,Wunderground v.1.13,2013-05-23 08:15:00,
2013-05-23 03:20:00,51.9,50.8,29.74,NNW,348,3.0,3.0,96,0.00,,,1.56,Wunderground v.1.13,2013-05-23 08:20:00,
2013-05-23 03:30:00,52.0,50.9,29.74,North,355,3.0,13.0,96,0.00,,,1.56,Wunderground v.1.13,2013-05-23 08:30:00,
2013-05-23 03:35:00,52.0,50.9,29.74,North,10,3.0,10.0,96,0.00,,,1.56,Wunderground v.1.13,2013-05-23 08:35:00,
2013-05-23 03:45:00,51.7,50.3,29.75,North,5,5.0,5.0,95,0.00,,,1.56,Wunderground v.1.13,2013-05-23 08:45:00,
2013-05-23 03:50:00,51.7,50.3,29.75,North,350,5.0,10.0,95,0.00,,,1.56,Wunderground v.1.13,2013-05-23 08:50:00,
2013-05-23 03:55:00,51.4,50.0,29.76,North,5,5.0,10.0,95,0.00,,,1.56,Wunderground v.1.13,2013-05-23 08:55:00,
2013-05-23 04:00:00,51.1,49.4,29.76,North,360,6.0,6.0,94,0.00,,,1.56,Wunderground v.1.13,2013-05-23 09:00:00,
2013-05-23 04:05:00,51.0,49.3,29.76,North,355,6.0,11.0,94,0.00,,,1.56,Wunderground v.1.13,2013-05-23 09:05:00,
2013-05-23 04:15:00,51.0,49.0,29.76,North,10,7.0,7.0,93,0.00,,,1.56,Wunderground v.1.13,2013-05-23 09:15:00,
2013-05-23 04:25:00,51.0,49.0,29.77,NNE,24,5.0,5.0,93,0.00,,,1.56,Wunderground v.1.13,2013-05-23 09:25:00,
2013-05-23 04:30:00,50.8,48.6,29.77,NE,51,6.0,11.0,92,0.00,,,1.56,Wunderground v.1.13,2013-05-23 09:30:00,
2013-05-23 04:40:00,50.8,48.6,29.78,NNE,33,7.0,7.0,92,0.00,,,1.56,Wunderground v.1.13,2013-05-23 09:40:00,
2013-05-23 04:45:00,50.7,48.5,29.78,NNE,22,7.0,7.0,92,0.00,,,1.56,Wunderground v.1.13,2013-05-23 09:45:00,
2013-05-23 04:55:00,50.8,48.6,29.79,North,360,6.0,18.0,92,0.00,,,1.56,Wunderground v.1.13,2013-05-23 09:55:00,
2013-05-23 05:00:00,50.8,48.6,29.79,NNE,22,4.0,18.0,92,0.00,,,1.56,Wunderground v.1.13,2013-05-23 10:00:00,
2013-05-23 05:05:00,50.8,48.6,29.79,North,5,3.0,3.0,92,0.00,,,1.56,Wunderground v.1.13,2013-05-23 10:05:00,
2013-05-23 05:15:00,50.4,48.2,29.79,NNE,28,6.0,18.0,92,0.00,,,1.56,Wunderground v.1.13,2013-05-23 10:15:00,
2013-05-23 05:25:00,50.2,47.7,29.81,North,355,7.0,18.0,91,0.00,,,1.56,Wunderground v.1.13,2013-05-23 10:25:00,
2013-05-23 05:30:00,50.2,47.7,29.81,ENE,70,7.0,18.0,91,0.00,,,1.56,Wunderground v.1.13,2013-05-23 10:30:00,
2013-05-23 05:40:00,50.2,47.4,29.82,NE,42,7.0,7.0,90,0.00,,,1.56,Wunderground v.1.13,2013-05-23 10:40:00,
2013-05-23 05:50:00,50.1,47.6,29.82,NNW,338,6.0,6.0,91,0.00,,,1.56,Wunderground v.1.13,2013-05-23 10:50:00,
2013-05-23 05:55:00,50.1,47.9,29.83,NW,322,5.0,16.0,92,0.00,,,1.56,Wunderground v.1.13,2013-05-23 10:55:00,
2013-05-23 06:05:00,49.5,47.3,29.83,NNE,32,7.0,19.0,92,0.00,,,1.56,Wunderground v.1.13,2013-05-23 11:05:00,
2013-05-23 06:15:00,49.4,47.2,29.84,NNE,15,7.0,7.0,92,0.00,,,0.00,Wunderground v.1.13,2013-05-23 11:15:00,
2013-05-23 06:20:00,49.4,47.2,29.84,NW,318,6.0,6.0,92,0.00,,,0.00,Wunderground v.1.13,2013-05-23 11:20:00,
2013-05-23 06:25:00,49.2,47.0,29.85,NNW,345,6.0,6.0,92,0.00,,,0.01,Wunderground v.1.13,2013-05-23 11:25:00,
2013-05-23 06:35:00,48.8,46.6,29.85,NW,326,5.0,5.0,92,0.00,,,0.01,Wunderground v.1.13,2013-05-23 11:35:00,
2013-05-23 06:45:00,48.6,46.4,29.86,North,5,5.0,18.0,92,0.00,,,0.01,Wunderground v.1.13,2013-05-23 11:45:00,
2013-05-23 06:50:00,48.5,46.3,29.86,NNW,348,6.0,18.0,92,0.00,,,0.01,Wunderground v.1.13,2013-05-23 11:50:00,
2013-05-23 06:55:00,48.0,45.8,29.88,North,360,7.0,18.0,92,0.00,,,0.01,Wunderground v.1.13,2013-05-23 11:55:00,
2013-05-23 07:00:00,47.7,45.5,29.88,NNE,26,7.0,18.0,92,0.00,,,0.01,Wunderground v.1.13,2013-05-23 12:00:00,
2013-05-23 07:05:00,47.6,45.4,29.88,NNW,329,6.0,6.0,92,0.00,,,0.01,Wunderground v.1.13,2013-05-23 12:05:00,
2013-05-23 07:15:00,47.4,45.5,29.89,North,355,5.0,21.0,93,0.00,,,0.01,Wunderground v.1.13,2013-05-23 12:15:00,
2013-05-23 07:25:00,47.3,45.4,29.90,NE,36,6.0,6.0,93,0.00,,,0.01,Wunderground v.1.13,2013-05-23 12:25:00,
2013-05-23 07:30:00,47.3,45.4,29.90,North,355,4.0,21.0,93,0.00,,,0.01,Wunderground v.1.13,2013-05-23 12:30:00,
2013-05-23 07:40:00,47.0,44.8,29.91,NNW,327,5.0,20.0,92,0.00,,,0.02,Wunderground v.1.13,2013-05-23 12:40:00,
2013-05-23 07:45:00,46.5,44.3,29.91,NNW,335,7.0,7.0,92,0.00,,,0.02,Wunderground v.1.13,2013-05-23 12:45:00,
2013-05-23 07:55:00,46.5,44.3,29.91,NW,306,4.0,20.0,92,0.00,,,0.02,Wunderground v.1.13,2013-05-23 12:55:00,
2013-05-23 08:00:00,46.5,44.3,29.91,NW,316,4.0,20.0,92,0.00,,,0.02,Wunderground v.1.13,2013-05-23 13:00:00,
2013-05-23 08:05:00,46.4,44.2,29.91,NNW,341,6.0,16.0,92,0.00,,,0.02,Wunderground v.1.13,2013-05-23 13:05:00,
2013-05-23 08:15:00,46.4,43.9,29.92,NNE,26,8.0,16.0,91,0.00,,,0.02,Wunderground v.1.13,2013-05-23 13:15:00,
2013-05-23 08:25:00,46.4,43.9,29.93,North,9,8.0,8.0,91,0.00,,,0.02,Wunderground v.1.13,2013-05-23 13:25:00,
2013-05-23 08:35:00,46.0,43.5,29.93,NNW,344,6.0,19.0,91,0.00,,,0.02,Wunderground v.1.13,2013-05-23 13:35:00,
2013-05-23 08:45:00,45.8,43.0,29.95,North,355,7.0,7.0,90,0.00,,,0.02,Wunderground v.1.13,2013-05-23 13:45:00,
2013-05-23 08:55:00,46.0,43.2,29.95,NNE,32,7.0,7.0,90,0.00,,,0.02,Wunderground v.1.13,2013-05-23 13:55:00,
2013-05-23 09:05:00,45.8,42.7,29.95,NNE,19,7.0,7.0,89,0.00,,,0.02,Wunderground v.1.13,2013-05-23 14:05:00,
2013-05-23 09:15:00,45.8,42.4,29.96,WNW,299,7.0,7.0,88,0.00,,,0.02,Wunderground v.1.13,2013-05-23 14:15:00,
2013-05-23 09:20:00,45.8,42.4,29.96,NW,325,6.0,21.0,88,0.00,,,0.02,Wunderground v.1.13,2013-05-23 14:20:00,
2013-05-23 09:30:00,45.8,42.2,29.97,NNW,327,7.0,21.0,87,0.00,,,0.02,Wunderground v.1.13,2013-05-23 14:30:00,
2013-05-23 09:40:00,46.0,42.3,29.98,NNW,340,7.0,21.0,87,0.00,,,0.02,Wunderground v.1.13,2013-05-23 14:40:00,
2013-05-23 09:50:00,46.1,42.1,29.98,NNW,344,7.0,21.0,86,0.00,,,0.02,Wunderground v.1.13,2013-05-23 14:50:00,
2013-05-23 10:00:00,46.1,41.8,29.98,NNE,25,7.0,7.0,85,0.00,,,0.02,Wunderground v.1.13,2013-05-23 15:00:00,
2013-05-23 10:05:00,46.1,41.8,29.98,NNE,27,7.0,23.0,85,0.00,,,0.02,Wunderground v.1.13,2013-05-23 15:05:00,
2013-05-23 10:15:00,46.1,41.8,29.99,North,351,6.0,23.0,85,0.00,,,0.02,Wunderground v.1.13,2013-05-23 15:15:00,
2013-05-23 10:20:00,46.1,41.8,29.99,NNW,344,6.0,23.0,85,0.00,,,0.02,Wunderground v.1.13,2013-05-23 15:20:00,
2013-05-23 10:25:00,46.2,41.9,30.00,NW,324,7.0,7.0,85,0.00,,,0.02,Wunderground v.1.13,2013-05-23 15:25:00,
2013-05-23 10:35:00,46.1,41.5,30.00,NW,315,6.0,18.0,84,0.00,,,0.02,Wunderground v.1.13,2013-05-23 15:35:00,
2013-05-23 10:45:00,46.2,41.3,30.01,NNW,334,8.0,8.0,83,0.00,,,0.02,Wunderground v.1.13,2013-05-23 15:45:00,
2013-05-23 10:50:00,46.4,41.2,30.01,NE,48,6.0,18.0,82,0.00,,,0.02,Wunderground v.1.13,2013-05-23 15:50:00,
2013-05-23 11:00:00,47.0,41.5,30.01,NW,326,8.0,8.0,81,0.00,,,0.02,Wunderground v.1.13,2013-05-23 16:00:00,
2013-05-23 11:05:00,48.2,42.0,30.01,NE,39,6.0,6.0,79,0.00,,,0.02,Wunderground v.1.13,2013-05-23 16:05:00,
2013-05-23 11:15:00,49.5,41.9,30.01,NNW,342,8.0,8.0,75,0.00,,,0.02,Wunderground v.1.13,2013-05-23 16:15:00,
2013-05-23 11:20:00,49.8,41.8,30.01,NE,54,8.0,8.0,74,0.00,,,0.02,Wunderground v.1.13,2013-05-23 16:20:00,
2013-05-23 11:30:00,49.8,42.2,30.02,NW,308,7.0,7.0,75,0.00,,,0.02,Wunderground v.1.13,2013-05-23 16:30:00,
2013-05-23 11:35:00,49.8,42.5,30.02,North,5,7.0,7.0,76,0.00,,,0.02,Wunderground v.1.13,2013-05-23 16:35:00,
2013-05-23 11:45:00,49.9,42.3,30.02,NNW,329,6.0,6.0,75,0.00,,,0.02,Wunderground v.1.13,2013-05-23 16:45:00,
2013-05-23 11:55:00,50.7,43.1,30.03,North,5,4.0,4.0,75,0.00,,,0.02,Wunderground v.1.13,2013-05-23 16:55:00,
2013-05-23 12:00:00,50.8,42.5,30.03,NNW,346,5.0,20.0,73,0.00,,,0.02,Wunderground v.1.13,2013-05-23 17:00:00,
2013-05-23 12:05:00,50.7,42.0,30.03,North,350,7.0,7.0,72,0.00,,,0.02,Wunderground v.1.13,2013-05-23 17:05:00,
2013-05-23 12:15:00,51.6,41.8,30.03,North,5,7.0,7.0,69,0.00,,,0.02,Wunderground v.1.13,2013-05-23 17:15:00,
2013-05-23 12:25:00,51.9,42.0,30.03,North,5,8.0,8.0,69,0.00,,,0.02,Wunderground v.1.13,2013-05-23 17:25:00,
2013-05-23 12:30:00,52.0,41.8,30.03,North,355,7.0,7.0,68,0.00,,,0.02,Wunderground v.1.13,2013-05-23 17:30:00,
2013-05-23 12:35:00,52.0,42.1,30.03,North,360,6.0,6.0,69,0.00,,,0.02,Wunderground v.1.13,2013-05-23 17:35:00,
2013-05-23 12:45:00,52.8,42.1,30.04,North,5,7.0,16.0,67,0.00,,,0.02,Wunderground v.1.13,2013-05-23 17:45:00,
2013-05-23 12:55:00,52.9,41.8,30.04,NE,34,7.0,7.0,66,0.00,,,0.02,Wunderground v.1.13,2013-05-23 17:55:00,
2013-05-23 13:00:00,52.8,42.1,30.04,WNW,300,8.0,8.0,67,0.00,,,0.02,Wunderground v.1.13,2013-05-23 18:00:00,
2013-05-23 13:05:00,53.1,42.0,30.04,NNE,13,8.0,20.0,66,0.00,,,0.02,Wunderground v.1.13,2013-05-23 18:05:00,
2013-05-23 13:15:00,53.8,42.3,30.04,NE,43,6.0,20.0,65,0.00,,,0.02,Wunderground v.1.13,2013-05-23 18:15:00,
2013-05-23 13:20:00,54.2,42.7,30.04,NE,39,7.0,20.0,65,0.00,,,0.02,Wunderground v.1.13,2013-05-23 18:20:00,
2013-05-23 13:30:00,53.9,42.8,30.05,ENE,69,7.0,20.0,66,0.00,,,0.02,Wunderground v.1.13,2013-05-23 18:30:00,
2013-05-23 13:40:00,54.2,42.7,30.05,NW,323,6.0,6.0,65,0.00,,,0.02,Wunderground v.1.13,2013-05-23 18:40:00,
2013-05-23 13:50:00,55.1,42.7,30.05,North,360,7.0,18.0,63,0.00,,,0.02,Wunderground v.1.13,2013-05-23 18:50:00,
2013-05-23 14:00:00,55.3,43.3,30.06,NNE,26,6.0,18.0,64,0.00,,,0.02,Wunderground v.1.13,2013-05-23 19:00:00,
2013-05-23 14:05:00,55.3,42.9,30.06,NNE,29,7.0,7.0,63,0.00,,,0.02,Wunderground v.1.13,2013-05-23 19:05:00,
2013-05-23 14:15:00,55.6,42.4,30.06,NNE,23,8.0,16.0,61,0.00,,,0.02,Wunderground v.1.13,2013-05-23 19:15:00,
2013-05-23 14:25:00,55.3,42.5,30.06,NNE,22,6.0,6.0,62,0.00,,,0.02,Wunderground v.1.13,2013-05-23 19:25:00,
2013-05-23 14:30:00,55.0,42.2,30.06,NE,46,6.0,6.0,62,0.00,,,0.02,Wunderground v.1.13,2013-05-23 19:30:00,
2013-05-23 14:40:00,55.4,43.4,30.07,NW,326,4.0,21.0,64,0.00,,,0.02,Wunderground v.1.13,2013-05-23 19:40:00,
2013-05-23 14:45:00,55.6,43.6,30.07,NW,321,3.0,21.0,64,0.00,,,0.02,Wunderground v.1.13,2013-05-23 19:45:00,
2013-05-23 14:55:00,55.4,43.4,30.07,North,5,6.0,6.0,64,0.00,,,0.02,Wunderground v.1.13,2013-05-23 19:55:00,
2013-05-23 15:05:00,55.3,43.7,30.07,NNW,338,5.0,20.0,65,0.00,,,0.02,Wunderground v.1.13,2013-05-23 20:05:00,
2013-05-23 15:15:00,55.6,43.2,30.07,NNW,334,6.0,20.0,63,0.00,,,0.02,Wunderground v.1.13,2013-05-23 20:15:00,
2013-05-23 15:25:00,55.7,42.9,30.07,North,11,7.0,20.0,62,0.00,,,0.02,Wunderground v.1.13,2013-05-23 20:25:00,
2013-05-23 15:35:00,55.7,42.5,30.07,North,350,6.0,15.0,61,0.00,,,0.02,Wunderground v.1.13,2013-05-23 20:35:00,
2013-05-23 15:45:00,55.6,43.2,30.07,NNE,18,6.0,15.0,63,0.00,,,0.02,Wunderground v.1.13,2013-05-23 20:45:00,
2013-05-23 15:55:00,56.6,42.9,30.07,NE,36,7.0,7.0,60,0.00,,,0.02,Wunderground v.1.13,2013-05-23 20:55:00,
2013-05-23 16:05:00,57.6,43.4,30.07,ENE,63,6.0,19.0,59,0.00,,,0.02,Wunderground v.1.13,2013-05-23 21:05:00,
2013-05-23 16:15:00,57.2,42.1,30.07,NNE,29,6.0,19.0,57,0.00,,,0.02,Wunderground v.1.13,2013-05-23 21:15:00,
2013-05-23 16:20:00,56.9,42.7,30.07,North,351,6.0,6.0,59,0.00,,,0.02,Wunderground v.1.13,2013-05-23 21:20:00,
2013-05-23 16:30:00,56.9,42.7,30.08,NNW,333,6.0,19.0,59,0.00,,,0.02,Wunderground v.1.13,2013-05-23 21:30:00,
2013-05-23 16:35:00,57.0,42.4,30.08,NW,313,6.0,20.0,58,0.00,,,0.02,Wunderground v.1.13,2013-05-23 21:35:00,
2013-05-23 16:45:00,57.3,42.2,30.09,NNE,18,6.0,20.0,57,0.00,,,0.02,Wunderground v.1.13,2013-05-23 21:45:00,
2013-05-23 16:50:00,56.9,41.4,30.09,NNE,12,7.0,20.0,56,0.00,,,0.02,Wunderground v.1.13,2013-05-23 21:50:00,
2013-05-23 17:00:00,57.3,41.3,30.09,NNE,28,6.0,6.0,55,0.00,,,0.02,Wunderground v.1.13,2013-05-23 22:00:00,
2013-05-23 17:05:00,57.0,41.0,30.09,NNE,17,5.0,16.0,55,0.00,,,0.02,Wunderground v.1.13,2013-05-23 22:05:00,
2013-05-23 17:15:00,57.5,41.0,30.10,NE,35,5.0,5.0,54,0.00,,,0.02,Wunderground v.1.13,2013-05-23 22:15:00,
2013-05-23 17:25:00,57.6,38.0,30.11,NNW,336,5.0,5.0,48,0.00,,,0.02,Wunderground v.1.13,2013-05-23 22:25:00,
2013-05-23 17:30:00,57.6,38.0,30.11,NNE,19,5.0,5.0,48,0.00,,,0.02,Wunderground v.1.13,2013-05-23 22:30:00,
2013-05-23 17:40:00,57.6,37.5,30.11,NNE,24,5.0,5.0,47,0.00,,,0.02,Wunderground v.1.13,2013-05-23 22:40:00,
2013-05-23 17:50:00,57.6,35.8,30.11,NE,35,5.0,5.0,44,0.00,,,0.02,Wunderground v.1.13,2013-05-23 22:50:00,
2013-05-23 18:00:00,57.3,36.1,30.12,NNE,21,4.0,4.0,45,0.00,,,0.02,Wunderground v.1.13,2013-05-23 23:00:00,
2013-05-23 18:05:00,57.5,36.9,30.12,NNW,340,4.0,13.0,46,0.00,,,0.02,Wunderground v.1.13,2013-05-23 23:05:00,
2013-05-23 18:15:00,57.6,35.8,30.12,NNW,346,5.0,13.0,44,0.00,,,0.02,Wunderground v.1.13,2013-05-23 23:15:00,
2013-05-23 18:25:00,57.0,35.9,30.13,NNE,31,5.0,5.0,45,0.00,,,0.02,Wunderground v.1.13,2013-05-23 23:25:00,
2013-05-23 18:30:00,56.9,36.3,30.13,NNE,25,5.0,13.0,46,0.00,,,0.02,Wunderground v.1.13,2013-05-23 23:30:00,
2013-05-23 18:40:00,56.7,35.6,30.14,NNE,13,5.0,14.0,45,0.00,,,0.02,Wunderground v.1.13,2013-05-23 23:40:00,
2013-05-23 18:45:00,56.7,35.6,30.14,North,5,4.0,14.0,45,0.00,,,0.02,Wunderground v.1.13,2013-05-23 23:45:00,
2013-05-23 18:55:00,56.6,34.3,30.14,NNE,30,4.0,14.0,43,0.00,,,0.02,Wunderground v.1.13,2013-05-23 23:55:00,
2013-05-23 19:00:00,56.3,34.1,30.14,NNE,21,5.0,5.0,43,0.00,,,0.02,Wunderground v.1.13,2013-05-24 00:00:00,
2013-05-23 19:05:00,56.2,34.6,30.14,NNE,12,5.0,5.0,44,0.00,,,0.02,Wunderground v.1.13,2013-05-24 00:05:00,
2013-05-23 19:15:00,56.0,34.4,30.15,NNE,31,3.0,3.0,44,0.00,,,0.02,Wunderground v.1.13,2013-05-24 00:15:00,
2013-05-23 19:20:00,55.9,34.3,30.15,NW,323,4.0,4.0,44,0.00,,,0.02,Wunderground v.1.13,2013-05-24 00:20:00,
2013-05-23 19:30:00,55.4,34.4,30.15,NNE,17,4.0,14.0,45,0.00,,,0.02,Wunderground v.1.13,2013-05-24 00:30:00,
2013-05-23 19:35:00,55.3,33.7,30.15,NNE,32,4.0,11.0,44,0.00,,,0.02,Wunderground v.1.13,2013-05-24 00:35:00,
2013-05-23 19:45:00,54.7,33.8,30.16,NNE,24,4.0,11.0,45,0.00,,,0.02,Wunderground v.1.13,2013-05-24 00:45:00,
2013-05-23 19:50:00,54.4,34.0,30.16,NNE,24,3.0,3.0,46,0.00,,,0.02,Wunderground v.1.13,2013-05-24 00:50:00,
2013-05-23 19:55:00,54.1,34.3,30.16,NNE,24,3.0,3.0,47,0.00,,,0.02,Wunderground v.1.13,2013-05-24 00:55:00,
2013-05-23 20:00:00,53.8,34.6,30.16,NE,39,2.0,2.0,48,0.00,,,0.02,Wunderground v.1.13,2013-05-24 01:00:00,
2013-05-23 20:05:00,53.5,35.3,30.16,NE,39,1.0,12.0,50,0.00,,,0.02,Wunderground v.1.13,2013-05-24 01:05:00,
2013-05-23 20:15:00,52.8,35.2,30.16,NE,39,1.0,1.0,51,0.00,,,0.02,Wunderground v.1.13,2013-05-24 01:15:00,
2013-05-23 20:25:00,52.2,35.6,30.16,NE,38,1.0,1.0,53,0.00,,,0.02,Wunderground v.1.13,2013-05-24 01:25:00,
2013-05-23 20:30:00,51.9,35.3,30.16,NNE,33,1.0,1.0,53,0.00,,,0.02,Wunderground v.1.13,2013-05-24 01:30:00,
2013-05-23 20:40:00,51.3,35.2,30.16,NNE,33,0.0,8.0,54,0.00,,,0.02,Wunderground v.1.13,2013-05-24 01:40:00,
2013-05-23 20:50:00,50.4,36.6,30.16,NE,35,0.0,8.0,59,0.00,,,0.02,Wunderground v.1.13,2013-05-24 01:50:00,
2013-05-23 21:00:00,49.4,40.0,30.18,East,92,2.0,2.0,70,0.00,,,0.02,Wunderground v.1.13,2013-05-24 02:00:00,
2013-05-23 21:05:00,48.9,40.3,30.18,East,99,1.0,1.0,72,0.00,,,0.02,Wunderground v.1.13,2013-05-24 02:05:00,
2013-05-23 21:15:00,48.2,40.3,30.18,East,101,0.0,6.0,74,0.00,,,0.02,Wunderground v.1.13,2013-05-24 02:15:00,
2013-05-23 21:20:00,47.9,40.7,30.18,East,101,0.0,6.0,76,0.00,,,0.02,Wunderground v.1.13,2013-05-24 02:20:00,
2013-05-23 21:30:00,47.1,39.9,30.19,ESE,104,0.0,6.0,76,0.00,,,0.02,Wunderground v.1.13,2013-05-24 02:30:00,
2013-05-23 21:40:00,46.5,39.3,30.20,ESE,104,1.0,1.0,76,0.00,,,0.02,Wunderground v.1.13,2013-05-24 02:40:00,
2013-05-23 21:50:00,46.0,38.9,30.20,SE,125,1.0,7.0,76,0.00,,,0.02,Wunderground v.1.13,2013-05-24 02:50:00,
2013-05-23 22:00:00,45.7,38.9,30.21,ESE,107,0.0,7.0,77,0.00,,,0.02,Wunderground v.1.13,2013-05-24 03:00:00,
2013-05-23 22:05:00,45.2,38.4,30.21,ESE,112,1.0,1.0,77,0.00,,,0.02,Wunderground v.1.13,2013-05-24 03:05:00,
2013-05-23 22:15:00,44.8,38.0,30.21,ESE,110,1.0,1.0,77,0.00,,,0.02,Wunderground v.1.13,2013-05-24 03:15:00,
2013-05-23 22:20:00,44.5,38.1,30.21,ESE,109,1.0,7.0,78,0.00,,,0.02,Wunderground v.1.13,2013-05-24 03:20:00,
2013-05-23 22:25:00,44.3,37.9,30.22,ESE,109,1.0,1.0,78,0.00,,,0.02,Wunderground v.1.13,2013-05-24 03:25:00,
2013-05-23 22:30:00,44.1,38.0,30.22,ESE,109,0.0,7.0,79,0.00,,,0.02,Wunderground v.1.13,2013-05-24 03:30:00,
2013-05-23 22:40:00,43.6,37.5,30.23,ESE,109,0.0,7.0,79,0.00,,,0.02,Wunderground v.1.13,2013-05-24 03:40:00,
2013-05-23 22:50:00,43.2,37.4,30.23,ESE,105,0.0,7.0,80,0.00,,,0.02,Wunderground v.1.13,2013-05-24 03:50:00,
2013-05-23 22:55:00,42.9,37.5,30.23,ESE,105,0.0,7.0,81,0.00,,,0.02,Wunderground v.1.13,2013-05-24 03:55:00,
2013-05-23 23:00:00,42.8,37.4,30.23,ESE,105,0.0,7.0,81,0.00,,,0.02,Wunderground v.1.13,2013-05-24 04:00:00,
2013-05-23 23:05:00,42.5,37.4,30.23,ESE,105,0.0,6.0,82,0.00,,,0.02,Wunderground v.1.13,2013-05-24 04:05:00,
2013-05-23 23:10:00,42.3,37.2,30.23,ESE,105,0.0,6.0,82,0.00,,,0.02,Wunderground v.1.13,2013-05-24 04:10:00,
2013-05-23 23:15:00,42.2,37.4,30.23,ESE,103,0.0,6.0,83,0.00,,,0.02,Wunderground v.1.13,2013-05-24 04:15:00,
2013-05-23 23:20:00,42.1,37.3,30.23,ESE,103,0.0,6.0,83,0.00,,,0.02,Wunderground v.1.13,2013-05-24 04:20:00,
2013-05-23 23:30:00,41.6,36.8,30.24,ESE,103,0.0,6.0,83,0.00,,,0.02,Wunderground v.1.13,2013-05-24 04:30:00,
2013-05-23 23:35:00,41.6,36.8,30.24,East,90,0.0,6.0,83,0.00,,,0.02,Wunderground v.1.13,2013-05-24 04:35:00,
2013-05-23 23:40:00,41.5,36.7,30.24,East,90,0.0,6.0,83,0.00,,,0.02,Wunderground v.1.13,2013-05-24 04:40:00,
2013-05-23 23:50:00,41.1,36.3,30.24,East,90,0.0,6.0,83,0.00,,,0.02,Wunderground v.1.13,2013-05-24 04:50:00,
2013-05-23 23:55:00,40.9,36.1,30.25,East,90,0.0,6.0,83,0.00,,,0.02,Wunderground v.1.13,2013-05-24 04:55:00,